Location: Tel Aviv
(32.0670°N, 34.7670°E)
Time: 15:32:11
(UTC+03:00)

ISS - Pass Details

Date: 26 May 2025
Orbit: 415 x 417 km, 51.6° (Epoch: 15 June)

Event Time Altitude Azimuth Distance (km) Brightness Sun altitude
Rises 22:35:47 0° 301° (WNW) 2,351 1.0 -29.2°
Reaches altitude 10° 22:38:06 10° 288° (WNW) 1,485 -0.4 -29.4°
Enters shadow 22:38:11 10° 287° (WNW) 1,458 -0.5 -29.4°
